Regional Weather Roundup
Issued by NWS

Home | Current Version | Previous Version | Text Only | Print | Product List | Glossary On
Versions: 1 2 3 4 5 6 7 8 9 10 11 12 13 14 15 16 17 18 19 20 21 22 23 24 25 26 27 28 29 30 31 32 33 34 35 36 37 38 39 40 41 42 43 44 45 46 47 48 49 50
000
ASUS43 KLOT 291209
RWRIL

ILLINOIS REGIONAL WEATHER ROUNDUP
NATIONAL WEATHER SERVICE CHICAGO/ROMEOVILLE IL
700 AM CDT SAT JUL 29 2017

NOTE: "FAIR" INDICATES FEW OR NO CLOUDS BELOW 12,000 FEET WITH NO
SIGNIFICANT WEATHER AND/OR OBSTRUCTIONS TO VISIBILITY.

* THESE STATIONS ARE NOT UNDER NWS QUALITY CONTROL. THEY ALSO MAY NOT
  REPORT WEATHER SUCH AS PRECIPITATION OR FOG.

ILZ001-002-007-009-015-016-024-291300-
NORTHWEST ILLINOIS

CITY           SKY/WX    TMP DP  RH WIND       PRES   REMARKS
MOLINE         MOSUNNY   63  58  83 NE3       30.11R
6HR MIN TEMP:  57; 6HR MAX TEMP:  63;

STERLING*      SUNNY     62  60  93 NE3       30.12R
SAVANNA*       SUNNY     61  58  91 N5        30.13R
$$

ILZ003-004-008-010-011-017-018-291300-
NORTH CENTRAL ILLINOIS

CITY           SKY/WX    TMP DP  RH WIND       PRES   REMARKS
ROCKFORD       MOSUNNY   65  59  81 NE5       30.14R
6HR MIN TEMP:  61; 6HR MAX TEMP:  65;

FREEPORT*      SUNNY     58  57  96 CALM      30.15R
ROCHELLE*      MOSUNNY   60  58  94 NE6       30.13R
DE KALB*       SUNNY     60  57  89 NE7       30.13R
PERU*          SUNNY     61  58  88 NE7       30.11R
$$

ILZ005-006-012>014-019>023-291300-
NORTHEAST ILLINOIS

CITY           SKY/WX    TMP DP  RH WIND       PRES   REMARKS
CHICAGO-OHARE  SUNNY     66  52  60 NE7       30.11R
6HR MIN TEMP:  64; 6HR MAX TEMP:  70;

CHICAGO-MIDWAY MOSUNNY   67  54  63 NE15G22   30.10R
6HR MIN TEMP:  65; 6HR MAX TEMP:  73;

AURORA         SUNNY     61  58  90 NE8       30.12R
6HR MIN TEMP:  59; 6HR MAX TEMP:  62;

LANSING*       SUNNY     63  54  72 NE7       30.10S
JOLIET*        SUNNY     65  55  69 NE6       30.11R
WAUKEGAN       MOSUNNY   67  54  63 NE10      30.13R
6HR MIN TEMP:  60; 6HR MAX TEMP:  69;

DUPAGE AIRPORT SUNNY     61  57  87 N7        30.12R
6HR MIN TEMP:  55; 6HR MAX TEMP:  61;

KANKAKEE*      SUNNY     57  52  82 NE6       30.10R
WHEELING       MOSUNNY   65  56  72 CALM      30.14R
6HR MIN TEMP:  61; 6HR MAX TEMP:  69;

MORRIS*        SUNNY     59  55  85 CALM      30.10R
ROMEOVILLE*    SUNNY     63  51  65 NE9       30.11R
NORTHERLY ISL    N/A     67  54  63 NE17        N/A
$$

LMZ740>746-291300-
SOUTHERN LAKE MICHIGAN

STATION/POSITION SKY/WX   TEMP    WIND        PRES    VSBY  WAVE
                          AIR SEA DIR/SP/G                  HT/PER
                          (F)     (DEG/KT/KT) (MB)    (MI)  (FT/S)
SOUTHERN BUOY              68 72   40/ 16/ 17 1019.5          3/ 4
WILMETTE HARBOR            68 71   60/ 14/ 17   N/A           4/ 5
HARRISON CRIB              68      60/ 16/ 18   N/A
BURNHAM HARBOR             68                   N/A
CALUMET HARBOR             67      30/ 11/ 15 1018.9R
BURNS HARBOR               65      70/ 14/ 18 1019.3R
MICHIGAN CITY              61      60/ 13/ 14   N/A
MICHIGAN CITY 6N           65 72   70/ 16/ 19   N/A           4/ 6
ST. JOSEPH                 62 70   80/ 12/ 16 1019.7          3/ 5
$$

ILZ025>027-034>036-040-047-049-050-058-095>099-291300-
WEST-CENTRAL ILLINOIS

CITY           SKY/WX    TMP DP  RH WIND       PRES   REMARKS
QUINCY         CLEAR     60  58  92 NE6       30.08R
GALESBURG*     MOSUNNY   58  56  94 N3        30.11R
MACOMB*        SUNNY     59  57  94 N3        30.11R
JACKSONVILLE*  SUNNY     62  58  89 NE3       30.07R
PITTSFIELD*    CLEAR     63  60  91 N5        30.08R
$$

ILZ028>032-037-038-041>044-048-051>054-059>061-291300-
CENTRAL ILLINOIS

CITY           SKY/WX    TMP DP  RH WIND       PRES   REMARKS
PONTIAC        SUNNY     61  57  87 NE9       30.10R
BLOOMINGTON    SUNNY     60  58  92 NE8       30.09R
DECATUR        SUNNY     62  58  86 NE6       30.06R
PEORIA         MOSUNNY   63  60  90 NE3       30.08R
6HR MIN TEMP:  61; 6HR MAX TEMP:  67;

LACON*         SUNNY     62  60  94 CALM      30.08R
LINCOLN*       SUNNY     61  60  96 CALM      30.07R
SPRINGFIELD    SUNNY     63  60  90 N3        30.07R
6HR MIN TEMP:  61; 6HR MAX TEMP:  65;

TAYLORVILLE    SUNNY     60  59  97 N3        30.06R
6HR MIN TEMP:  58; 6HR MAX TEMP:  62;

$$

ILZ033-039-045-046-055>057-062-063-291300-
EAST-CENTRAL ILLINOIS

CITY           SKY/WX    TMP DP  RH WIND       PRES   REMARKS
CHAMPAIGN      SUNNY     62  51  67 NE8       30.06R
RANTOUL*       SUNNY     62  56  81 NE8       30.07R
MATTOON        SUNNY     60  59  96 N7        30.04R
PARIS*         SUNNY     59  55  88 NE7       30.05R
$$

ILZ079-100>102-291300-
SOUTHWEST ILLINOIS

CITY           SKY/WX    TMP DP  RH WIND       PRES   REMARKS
ALTON          SUNNY     61  61 100 N8        30.04R
BELLEVILLE     SUNNY     65  61  88 N6        30.04R
CAHOKIA*       MOSUNNY   67  61  81 N3        30.04R
SPARTA*        MOSUNNY   63  62  95 NE6       30.03R
$$

ILZ064>066-069>071-074>076-080>082-084>086-088>090-092>094-291300-
SOUTH-CENTRAL ILLINOIS

CITY           SKY/WX    TMP DP  RH WIND       PRES   REMARKS
CARBONDALE     MOSUNNY   65  65 100 N3        30.00R
6HR MIN TEMP:  62; 6HR MAX TEMP:  70;

CAIRO*         SUNNY     67  64  87 N6        29.97R
EFFINGHAM*     SUNNY     63  61  94 N5        30.05R
MARION         SUNNY     66  66 100 N9        30.00R
MT. VERNON     SUNNY     65  62  90 N6        30.01R
CENTRALIA*     SUNNY     65  62  90 NE5       30.02R
SALEM*         SUNNY     65  61  86 NE6       30.02R
METROPOLIS*    SUNNY     67  63  88 N3        29.98R
$$

ILZ067-068-072-073-078-083-087-091-291300-
SOUTHEAST ILLINOIS

CITY           SKY/WX    TMP DP  RH WIND       PRES   REMARKS
LAWRENCEVILLE  SUNNY     65  60  84 N10       30.01R
FLORA*         SUNNY     65  62  90 N3        30.02R
FAIRFIELD*     SUNNY     64  63  96 CALM      30.00R
HARRISBURG*    SUNNY     66  64  93 N8        30.00R
ROBINSON*      SUNNY     62  60  95 N7        30.02R
CARMI*         SUNNY     64  63  96 N3        29.99R
$$

ABBREVIATIONS USED IN REMARKS
   TC - TEMPERATURE IN CELSIUS
  WCI - WIND CHILL INDEX
   HX - HEAT INDEX
  VSB - VISIBILITY
$$




USA.gov is the U.S. government's official web portal to all federal, state and local government web resources and services.